TAR851 LFLL-DTTA

Flight info

Callsign TAR851
Flight time N/A
Altitude 19000
Route ROMAM T43 BEPER/N0443F370 DCT RETNO DCT KOLON DCT LOKDU DCT PELOS DCT IPROM DCT KOVAS DCT CAR DCT NOLSI UA868 TUC
Aircraft A320/M-SDE3FGHIRWY/LB1

Departure

Time 2026-05-01 15:15
Airport Lyon Saint-Exupéry Airport (LFLL)

Arrival

Time N/A
Airport Tunis Carthage International Airport (DTTA)
Time Latitude Longitude Altitude Speed Heading
2026-05-01 14:47 45.71625 5.07905 797 ft 0 kts 277°
2026-05-01 15:04 45.71625 5.07911 796 ft 3 kts 277°
2026-05-01 15:04 45.71621 5.07949 796 ft 4 kts 277°
2026-05-01 15:04 45.71618 5.07987 797 ft 4 kts 280°
2026-05-01 15:05 45.71611 5.08024 798 ft 4 kts 300°
2026-05-01 15:05 45.71598 5.08042 800 ft 2 kts 13°
2026-05-01 15:05 45.71582 5.08037 800 ft 0 kts 15°
2026-05-01 15:06 45.71582 5.08036 800 ft 0 kts 15°
2026-05-01 15:07 45.71589 5.08039 800 ft 2 kts 16°
2026-05-01 15:08 45.71603 5.08045 800 ft 2 kts 16°
2026-05-01 15:08 45.71613 5.08049 804 ft 1 kts 15°
2026-05-01 15:08 45.71618 5.08051 807 ft 1 kts 15°
2026-05-01 15:08 45.71622 5.08053 810 ft 1 kts 15°
2026-05-01 15:09 45.71640 5.08060 793 ft 3 kts 15°
2026-05-01 15:09 45.71667 5.08071 798 ft 5 kts 20°
2026-05-01 15:09 45.71693 5.08102 799 ft 8 kts 65°
2026-05-01 15:09 45.71679 5.08229 801 ft 16 kts 104°
2026-05-01 15:10 45.71681 5.08377 800 ft 14 kts 83°
2026-05-01 15:10 45.71779 5.08485 802 ft 11 kts 354°
2026-05-01 15:10 45.71853 5.08474 802 ft 10 kts 354°
2026-05-01 15:11 45.71919 5.08463 802 ft 9 kts 353°
2026-05-01 15:11 45.72142 5.08435 802 ft 26 kts 358°
2026-05-01 15:11 45.72340 5.08414 799 ft 30 kts 355°
2026-05-01 15:12 45.72549 5.08390 796 ft 32 kts 355°
2026-05-01 15:12 45.73019 5.08332 788 ft 35 kts 355°
2026-05-01 15:12 45.73271 5.08296 784 ft 37 kts 354°
2026-05-01 15:13 45.74030 5.08214 773 ft 37 kts
2026-05-01 15:14 45.74356 5.08558 772 ft 28 kts 105°
2026-05-01 15:14 45.74198 5.08650 773 ft 29 kts 174°
2026-05-01 15:14 45.73280 5.08757 788 ft 127 kts 175°
2026-05-01 15:15 45.70638 5.09085 1577 ft 174 kts 175°
2026-05-01 15:15 45.68192 5.09397 2869 ft 188 kts 177°
2026-05-01 15:16 45.65825 5.09670 3462 ft 221 kts 177°
2026-05-01 15:16 45.62627 5.10045 4703 ft 237 kts 176°
2026-05-01 15:17 45.59078 5.10472 6022 ft 264 kts 176°
2026-05-01 15:18 45.53500 5.11141 8625 ft 273 kts 175°
2026-05-01 15:18 45.51569 5.11376 9446 ft 278 kts 175°
2026-05-01 15:19 45.45527 5.12116 11035 ft 321 kts 175°
2026-05-01 15:19 45.40893 5.12683 12182 ft 338 kts 175°
2026-05-01 15:19 45.38530 5.12968 12919 ft 342 kts 175°
2026-05-01 15:20 45.33782 5.13534 14448 ft 345 kts 175°
2026-05-01 15:20 45.31374 5.13822 15042 ft 349 kts 175°
2026-05-01 15:20 45.28942 5.14116 15684 ft 352 kts 175°
2026-05-01 15:21 45.26487 5.14412 16307 ft 356 kts 175°
2026-05-01 15:21 45.24041 5.14703 16900 ft 360 kts 175°
2026-05-01 15:21 45.21539 5.14999 17530 ft 362 kts 175°
2026-05-01 15:21 45.19017 5.15297 18163 ft 365 kts 175°
2026-05-01 15:22 45.13927 5.15899 19269 ft 371 kts 175°
2026-05-01 15:22 45.11349 5.16206 19780 ft 374 kts 175°
2026-05-01 15:22 45.08740 5.16518 20274 ft 377 kts 175°
2026-05-01 15:23 45.06146 5.16817 20751 ft 381 kts 176°
2026-05-01 15:23 45.03495 5.17110 21260 ft 383 kts 176°
2026-05-01 15:23 45.00830 5.17399 21745 ft 386 kts 176°
2026-05-01 15:23 44.98139 5.17690 22224 ft 389 kts 176°
2026-05-01 15:24 44.95428 5.17988 22703 ft 392 kts 176°
2026-05-01 15:24 44.92704 5.18288 23132 ft 396 kts 177°
2026-05-01 15:24 44.90079 5.18579 23559 ft 399 kts 176°
2026-05-01 15:24 44.87306 5.18890 23930 ft 403 kts 176°
2026-05-01 15:25 44.84528 5.19201 24286 ft 407 kts 176°
2026-05-01 15:25 44.81701 5.19518 24634 ft 410 kts 177°
2026-05-01 15:25 44.78850 5.19837 25014 ft 412 kts 176°
2026-05-01 15:25 44.75976 5.20158 25350 ft 416 kts 177°
2026-05-01 15:26 44.73083 5.20478 25688 ft 419 kts 177°
2026-05-01 15:26 44.70169 5.20801 26025 ft 422 kts 176°
2026-05-01 15:26 44.67270 5.21531 26349 ft 427 kts 166°
2026-05-01 15:26 44.64478 5.23010 26685 ft 432 kts 155°
2026-05-01 15:27 44.61899 5.25221 27012 ft 437 kts 144°
2026-05-01 15:27 44.59640 5.28104 27333 ft 443 kts 134°
2026-05-01 15:27 44.57626 5.31330 27643 ft 446 kts 133°
2026-05-01 15:28 44.53509 5.37888 28304 ft 451 kts 132°
2026-05-01 15:28 44.51418 5.41193 28605 ft 454 kts 132°
2026-05-01 15:28 44.49317 5.44508 28890 ft 456 kts 133°
2026-05-01 15:29 44.45073 5.51208 29447 ft 462 kts 133°
2026-05-01 15:29 44.42934 5.54581 29751 ft 464 kts 133°
2026-05-01 15:29 44.38654 5.61329 30295 ft 469 kts 131°
2026-05-01 15:30 44.35465 5.67575 30696 ft 473 kts 124°
2026-05-01 15:31 44.27515 5.83974 32163 ft 470 kts 124°
2026-05-01 15:31 44.23849 5.91462 32779 ft 470 kts 124°
2026-05-01 15:32 44.20161 5.98983 33450 ft 469 kts 124°
2026-05-01 15:32 44.16493 6.06475 34119 ft 468 kts 124°
2026-05-01 15:33 44.10970 6.17710 34895 ft 469 kts 124°
2026-05-01 15:34 44.05482 6.28820 35693 ft 468 kts 124°